Simultaneous Nadir Overpasses (SNOs) Predictions

Prediction of SNOs between GOES-15 and METOP-B Satellite Orbit:

Table of predicted SNOs for the next 14.0 days since TLE Epoch: 12/25/2021
Index Date Time (GOES-15) GOES-15 Lat,Lon METOP-B Lat,Lon Distance(km) Time Diff (sec)
1 12/25/2021 06:19:59 0.10,-127.98 -0.74,-131.86 441.66 80
2 12/26/2021 05:56:40 0.11,-128.00 0.39,-126.87 130.45 80
3 12/27/2021 18:18:10 -0.10,-128.05 0.67,-131.42 383.38 80
4 12/28/2021 17:54:50 -0.10,-128.08 -0.46,-126.42 188.44 80
5 12/30/2021 06:16:31 0.09,-128.11 -0.53,-131.03 331.98 80
6 12/31/2021 05:53:10 0.10,-128.13 0.55,-126.02 239.20 80
7 01/01/2022 18:14:42 -0.09,-128.16 0.45,-130.59 276.23 80
8 01/02/2022 17:51:22 -0.09,-128.18 -0.69,-125.60 294.69 80
9 01/04/2022 06:13:01 0.08,-128.19 -0.36,-130.19 226.84 80
10 01/05/2022 05:49:42 0.08,-128.21 0.78,-125.20 343.90 80
11 01/06/2022 18:11:12 -0.06,-128.24 0.26,-129.75 171.89 80
12 01/07/2022 17:47:53 -0.07,-128.26 -0.88,-124.76 399.03 80
